Погода в Ванаваре

Погода в Ванаваре : погода сейчас, прогноз погоды и архив. Всё, что Вы хотите узнать о погоде в Ванаваре!

Хотите узнать прогноз погоды в Ванаваре? Тогда Вам сюда: Погода в Ванаваре

Поиск расширенной информации на нашем сайте:

Другие новости

Новости СМИ2

Главная страница сайта

Новости сайта

02.10.2013

Напоминаем, что на нашем новом сайте вы можете получить высокодетализированные прогнозы погоды по пунктам России, СНГ и мира (включающие важные для авиации метеовеличины, такие как направление и скорость ветра, видимость, явления погоды, количество и форма облачности, нижняя и верхняя граница облачности), а также ознакомиться с разнообразными материалами по авиационной метеорологии и подборкой полезных ссылок на эту тему.

Сайт Метеоцентр.Азия посвящён разработке технологий оптимизации авиаметеорологического обслуживания, включая проектирование и перспективное создание нескольких автоматизированных авиаметеорологических систем:
- система выпуска высокодетальных прогностических карт явлений погоды для нижнего воздушного пространства по России и ближнему зарубежью;
- система верификации прогнозов TAF (выпускаемых синоптиками официальных АМСГ РФ и ближнего зарубежья) и AUTOTAF (выпускаемых сайтом Метеоцентр.Азия) - выявление ошибок, онлайн-сопоставление с фактической погодой METAR, автоматическое внесение коррективов в прогнозы при резком отклонении фактической погоды от прогноза, подсчёт оправдываемости прогнозов по элементам и в целом;
- система обработки, анализа и отображения авиаметеорологической информации для применения провайдерами метеорологической информации.

Рекомендуем: Заправка картриджей Xerox Фрунзенская.

Погода в Ванаваре - сегодня

Время (UTC), дата Ветер
(°,м/с) 
Видим.   Явления Облачность Т
(°С)
Тd
(°С)
f(%) Тe
(°С)
Pmin
(гПа)
dP
(гПа)
Po
(мм)
O2
(г/м3)
Тmin Tmax R s Состояние
почвы
03 26.05.17 250 (З) 3{10}  20000 м    6/6 600 м 
[Cu med, cong]
+9 -2.3 45 +8  1007.9  0.8  733  286           
06 26.05.17 240 (ЮЗ) 3-10{10}  20000 м    5/4 1000 м верхняя 
[Cu hum|Ci fib]
+12.8 -2.5 34 +13  1007.1  -0.4  732  282           
09 26.05.17 300 (СЗ) 2{10}  20000 м    10/3 1000 м средняя, верхняя 
[Cu hum|Ac lent|Ci fib]
+14.7 -3.6 28 +15  1004.7  -2.2  731  280           
12 26.05.17 060 (СВ) 20000 м    10/8 600 м кучево-дожд., верхняя 
[Cb cap|Ci fib]
+13.5 -2.7 32 +15  1002.4  -2.4  729  280    +15.9       
18 26.05.17 210 (ЮЗ) 20000 м  {ливн. осадки}  10/10 600 м кучево-дожд. 
[Cb cap]
+4.3 +3.6 95 +5  1003.4  -1  729  289           
00 27.05.17 300 (СЗ) 3{10}  10 км  слаб. дождь со снегом{ливн. осадки}  10/10 300 м 
[Frnb|Ns]
+1.7 +0.6 92 1010.8  4.7  734  294  +0.9      мокрая 
03 27.05.17 300 (СЗ) 20000 м  {снег}  10/5 600 м верхняя 
[Cu hum|Cs]
+6 +0.1 66 +5  1012.8  2.5  736  290           
09 27.05.17 310 (СЗ) 4{11}  20000 м    10/8 600 м кучево-дожд., средняя, верхняя 
[Cb cap|Ac trans|Ci fib]
+11.8 -5 30 +11  1013.8  0.2  737  285           
12 27.05.17 320 (СЗ) 4-10{12}  20000 м    9/3 600 м кучево-дожд., средняя, верхняя 
[Cb cap|Ac trans|Ci sp]
+8 +0.7 60 +7  1016.6  2.4  739  289    +12.4  0.0     
15 27.05.17 320 (СЗ) 1{10}  20000 м    10/6 600 м кучево-дожд., средняя, верхняя 
[Cb cap|Ac trans|Cs]
+5.8 +0.8 70 +7  1018.4  1.5  740  292           
18 27.05.17 010 (С) 20000 м    4/3 1000 м верхняя 
[Sc|Ci fib]
-0.2 -3.1 81 1019.7  0.5  740  299           
21 27.05.17 180 (Ю) 20000 м  слаб. ливневой снег  10/4 600 м кучево-дожд., средняя, верхняя 
[Cb cap|Ac trans|Ci fib]
-1.4 -2.1 95 -1  1020.3  0.5  741  300           
00 28.05.17 310 (СЗ) 20000 м  {ливн. осадки}  10/3 1000 м верхняя 
[Sc|Ci fib]
+4 -2.6 62 +5  1020.1  0.4  741  295  -2.1    0.0    влажная 
03 28.05.17 300 (СЗ) 20000 м    10/8 1000 м средняя, верхняя 
[Sc|Ac trans|Ci fib]
+7.6 -5.8 38 +8  1019  -0.6  741  291           
06 28.05.17 360 (С) 20000 м    9/8 1000 м верхняя 
[Cu hum|Ci fib]
+11.3 -6.7 28 +12  1017.4  -1.2  740  287           
09 28.05.17 340 (С) 20000 м    9/8 1000 м верхняя 
[Cu hum|Ci fib]
+11.1 -7.2 27 +11  1016.3  -1.1  739  287           
12 28.05.17 020 (С) 20000 м    6/4 1000 м средняя, верхняя 
[Cu hum|Ac trans|Ci fib]
+11.2 -6.9 27 +12  1016.2  739  287    +12.9       
15 28.05.17 120 (ЮВ) 20000 м    9/4 1000 м средняя, верхняя 
[Sc|Ac trans|Ci fib]
+7.7 -5.8 38 +8  1017.4  0.7  739  290           
18 28.05.17 040 (СВ) 20000 м    1/0 верхняя 
[Ci fib]
-1.9 -3.8 87 -1  1019  0.5  740  301           
21 28.05.17 050 (СВ) 20000 м    10/0 верхняя 
[Ci fib]
-2 -4.4 84 -1  1019  -0.1  740  301           
00 29.05.17 тихо ()   20000 м    10/0 верхняя 
[Cs]
+5.7 -2.2 57 +6  1018.4  0.3  740  292  -3.4        влажная 
03 29.05.17 140 (ЮВ) 20000 м    10/1 1000 м верхняя 
[Cu hum|Cs]
+12.6 -6.6 26 +14  1016.3  -1.3  739  285           
06 29.05.17 140 (ЮВ) 20000 м    9/1 1000 м средняя, верхняя 
[Cu hum|Ac trans|Cc]
+15.6 -8.1 19 +17  1014  -1.9  737  282           
09 29.05.17 280 (З) 20000 м    1/1 1000 м 
[Cu hum]
+16.7 -8.3 17 +18  1012.3  -1.5  736  280           
12 29.05.17 110 (В) 20000 м    1/0 верхняя 
[Ci fib]
+16.1 -7.9 18 +17  1011.6  -0.7  736  281    +17.2       
Время (UTC), дата Ветер
(°,м/с) 
Видим.   Явления Облачность Т
(°С)
Тd
(°С)
f(%) Тe
(°С)
Pmin
(гПа)
dP
(гПа)
Po
(мм)
O2
(г/м3)
Тmin Tmax R s Состояние
почвы

Для получения пояснительной информации подведите курсор к названию столбца.

ПОГОДА в Ванаваре - архив

Всё, что Вы хотите узнать о погоде в Ванаваре - удобно и подробно!

Выберите нужную дату (начиная с 1 января 2015* года) и нажмите кнопку "Найти".
Будут отображены архивные сводки погоды по пункту Ванавара, начиная с указанной даты.


Отображать данные в формате CSV (для использования в таблицах Excel)


Внимание! Наш архив погоды предназначен исключительно для личного некоммерческого использования в познавательных целях. Если Вам необходимы официальные справки о состоянии погоды (для производственных, юридических, коммерческих и т.п. целей), обращайтесь в органы Росгидромета.

*Примечание: данная дата относится к архиву по метеостанциям СССР (Россия, СНГ, Балтия).
Архив по метеостанциям Зарубежной Европы и Азии (кроме Китая) хранится 10 дней, по другим регионам земного шара (Китай, Африка, Америка, Австралия, Океания) - 1 день.

Ванавара - район местоположения метеостанции


Название, широта, долгота, высота метеостанции:
Ванавара 60.3°ш. 102.3°д. 260 м над ур. моря [Российская Федерация]

Дополнительная информация

В oтличие oт бoльшинства пoгoдных сайтoв мы публикуем пoдрoбную метеoинфoрмацию в детальнoм прoфессиoнальнoм фoрмате.

Характеристики температуры и влажнoсти вoздуха измеряются на высoте 2 м в тени вдали oт зданий и деревьев.
Скoрoсть ветра измеряется на высoте 10 м (на урoвне рoста челoвека скoрoсть ветра ниже в 1.5-2 раза). Если метеoстанция нахoдится в гoрoде или в лесу, тo скoрoсть ветра занижена на 2-4 м/с пo сравнению с oткрытым местoм. Скoрoсть ветра над акватoриями крупных рек и oзёр, а также на вершинах хoлмoв на 2-5 м/с выше, чем в oбычных услoвиях.
Атмoсфернoе давление в разных тoчках местнoсти мoжет значительнo oтличаться oт давления на метеoстанции, в зависимoсти oт услoвий рельефа (при пoдъёме на 10 м давление пoнижается примернo на 1 мм рт.ст.).